Offutt AFB, NE

8:53 PM CST on February 22, 2017 (GMT -0600)
Offutt Air Force Base

Weather History for KOFF - June, 2013

Change the Weather History Date:

Wednesday, June 19, 2013

  Actual Average Record
Temperature  
Mean Temperature 74 °F -  
Max Temperature 87 °F 81 °F 98 °F (1997)
Min Temperature 60 °F 61 °F 53 °F (2007)
Cooling Degree Days 8    
Growing Degree Days 24 (Base 50)    
Moisture  
Dew Point 63 °F    
Average Humidity 77    
Maximum Humidity 100    
Minimum Humidity 44    
Precipitation  
Precipitation 0.00 in - - ()
Sea Level Pressure  
Sea Level Pressure 29.97 in    
Wind  
Wind Speed 5 mph (SE)    
Max Wind Speed 17 mph    
Max Gust Speed 22 mph    
Visibility 9 miles    
Events      
Averages and records for this station are not official NWS values.
T = Trace of Precipitation, MM = Missing Value Source: NWS Daily Summary

Daily Weather History Graph

Daily Weather History Graph

Search for Another Location

Airport or City:

Trip Planner

Search our weather history database for the weather conditions in past years. The results will help you decide how hot, cold, wet, or windy it might be!

Date:

Astronomy

Jun. 19, 2013 Rise Set
Actual Time 5:50 AM CDT 8:59 PM CDT
Civil Twilight 5:17 AM CDT 9:33 PM CDT
Nautical Twilight 4:33 AM CDT 10:16 PM CDT
Astronomical Twilight 3:42 AM CDT 11:07 PM CDT
Moon 4:52 PM CDT (6/19) 2:38 AM CDT (6/19)
Length of Visible Light 16h 15m
Length of Day
15h 08m
Waxing Gibbous, 80% of the Moon is Illuminated
Jun 19
Waxing Gibbous
Jun 23
Full
Jun 29
Last Quarter
Jul 8
New
Jul 15
First Quarter

Hourly Weather History & Observations

Time (CDT) Temp. Heat Index Dew Point Humidity Pressure Visibility Wind Dir Wind Speed Gust Speed Precip Events Conditions
12:58 AM 60.6 °F - 60.4 °F 99% 30.00 in 10.0 mi Calm Calm - N/A   Clear
1:58 AM 61.3 °F - 61.0 °F 99% 30.00 in 10.0 mi Calm Calm - N/A   Clear
2:58 AM 60.8 °F - 60.6 °F 99% 29.99 in 10.0 mi NNE 2.3 mph - N/A   Partly Cloudy
3:58 AM 60.1 °F - 59.7 °F 99% 29.99 in 10.0 mi Calm Calm - N/A   Clear
4:33 AM 64.4 °F - 62.6 °F 94% 30.00 in 6.0 mi SSE 3.5 mph - N/A   Mostly Cloudy
4:38 AM 62.6 °F - 62.6 °F 100% 30.00 in 4.0 mi SE 2.3 mph - N/A   Scattered Clouds
4:48 AM 62.6 °F - 62.6 °F 100% 30.00 in 5.0 mi South 1.2 mph - N/A   Partly Cloudy
4:58 AM 61.2 °F - 61.0 °F 99% 30.00 in 6.0 mi Calm Calm - N/A   Partly Cloudy
5:01 AM 60.8 °F - 60.8 °F 100% 30.00 in 5.0 mi Calm Calm - N/A   Light Drizzle
5:06 AM 60.8 °F - 60.8 °F 100% 30.00 in 10.0 mi ESE 4.6 mph - N/A   Light Drizzle
5:08 AM 60.8 °F - 60.8 °F 100% 30.00 in 10.0 mi ESE 4.6 mph - N/A   Light Drizzle
5:10 AM 60.8 °F - 60.8 °F 100% 30.00 in 10.0 mi ESE 4.6 mph - N/A   Partly Cloudy
5:58 AM 61.0 °F - 60.8 °F 99% 30.01 in 10.0 mi East 5.8 mph - N/A   Partly Cloudy
6:58 AM 62.8 °F - 62.4 °F 99% 30.00 in 10.0 mi East 3.5 mph - N/A   Clear
7:58 AM 68.7 °F - 64.8 °F 87% 30.01 in 10.0 mi SE 5.8 mph - N/A   Mostly Cloudy
8:58 AM 72.9 °F - 66.4 °F 80% 30.01 in 10.0 mi ESE 10.4 mph - N/A   Partly Cloudy
9:58 AM 76.8 °F - 64.8 °F 66% 30.01 in 10.0 mi ESE 12.7 mph - N/A   Clear
10:58 AM 78.4 °F - 63.5 °F 60% 30.00 in 10.0 mi SE 16.1 mph - N/A   Scattered Clouds
11:58 AM 78.4 °F - 62.8 °F 58% 30.00 in 10.0 mi SE 12.7 mph - N/A   Scattered Clouds
12:58 PM 81.0 °F 82.7 °F 65.1 °F 58% 29.98 in 10.0 mi SSE 15.0 mph - N/A   Partly Cloudy
1:58 PM 85.3 °F 88.5 °F 68.0 °F 56% 29.95 in 10.0 mi SE 13.8 mph 21.9 mph N/A   Partly Cloudy
2:58 PM 85.8 °F 87.9 °F 66.0 °F 51% 29.95 in 10.0 mi SSE 17.3 mph - N/A   Partly Cloudy
3:58 PM 86.0 °F 86.3 °F 62.1 °F 44% 29.94 in 10.0 mi ESE 13.8 mph - N/A   Clear
4:21 PM 87.8 °F 89.4 °F 64.4 °F 46% 29.94 in 10.0 mi South 13.8 mph 21.9 mph N/A   Clear
4:58 PM 86.2 °F 88.4 °F 65.8 °F 51% 29.92 in 10.0 mi SE 17.3 mph 21.9 mph N/A   Partly Cloudy
5:58 PM 85.3 °F 87.1 °F 65.3 °F 51% 29.91 in 10.0 mi SE 17.3 mph - N/A   Clear
6:58 PM 84.6 °F 85.6 °F 63.7 °F 49% 29.90 in 10.0 mi SSE 15.0 mph - N/A   Clear
7:58 PM 82.8 °F 83.6 °F 62.4 °F 50% 29.90 in 10.0 mi SSE 9.2 mph - N/A   Clear
8:58 PM 77.5 °F - 62.6 °F 60% 29.90 in 10.0 mi ESE 9.2 mph - N/A   Clear
9:58 PM 74.7 °F - 64.0 °F 69% 29.92 in 10.0 mi ESE 9.2 mph - N/A   Clear
10:58 PM 74.1 °F - 64.6 °F 72% 29.94 in 10.0 mi ESE 6.9 mph - N/A   Clear
11:58 PM 73.8 °F - 64.8 °F 73% 29.95 in 10.0 mi ESE 10.4 mph - N/A   Clear